www.pogodaiklimat.ru

Погода и климат >> Архив погоды >> Венгрия >> Сольнок


ПОГОДА в Сольноке

  • Прогноз погоды в Сольноке
  • Монитор погоды в Сольноке

АРХИВ ПОГОДЫ в Сольноке

Время (UTC), дата Ветер
(напр.,м/с)
 
Видим.   Явления Облачность Т
(С)
Тd
(С)
f
(%)
Тe
(С)
Тes
(С)
Комфортность P
(гПа)
Po
(гПа)
Тmin
(С)
Tmax
(С)
R
(мм)
R24
(мм)
S
(см)
01 10.06 СВ 3 н/о н/о +19.3 +18.0 92 +22 +22 комфорт 1019.2 1008.5
02 10.06 СВ 2 н/о н/о +18.4 +17.6 95 +20 +20 1018.9 1008.1
03 10.06 СВ 2 10 км 4/0
[Ci sp]
+18.0 +17.7 98 +19 +19 1018.6 1007.8
04 10.06 В 3 н/о н/о +19.5 +18.3 93 +22 +22 комфорт 1018.6 1007.9
05 10.06 СВ 4 н/о н/о +20.8 +18.4 86 +25 +25 комфорт 1018.5 1007.8
06 10.06 СВ 3 20 км 1/0
[Ci fib]
+22.4 +19.2 82 +28 +28 душно 1018.3 1007.7 +17.9 0
07 10.06 СВ 3 н/о н/о +24.0 +20.1 79 +30 +30 очень
душно
1018.0 1007.4
08 10.06 В 3
{10}
н/о н/о +25.8 +21.0 75 +32 +32 очень
душно
1017.5 1007.0
09 10.06 В 3 20 км 3/0
[Ci sp]
+27.6 +21.2 68 +35 +35 очень
душно
1017.1 1006.7
10 10.06 В 3 н/о н/о +28.5 +19.2 57 +34 +34 очень
душно
1016.7 1006.3
11 10.06 В 3 н/о н/о +29.7 +19.1 53 +35 +35 очень
душно
1016.1 1005.8
12 10.06 ЮВ 3 30 км 4/4 1500 м
[Cu hum Ci sp]
+30.3 +18.4 49 +35 +35 очень
душно
1015.7 1005.4
13 10.06 В 3 н/о н/о +30.2 +18.0 48 +35 +35 очень
душно
1015.1 1004.8
14 10.06 В 2
{7}
н/о н/о +29.9 +19.0 52 +35 +35 очень
душно
1014.6 1004.3
15 10.06 В 3 30 км 4/4 1500 м
[Cu hum Ci fib]
+29.9 +17.7 48 +34 +34 очень
душно
1014.1 1003.8
16 10.06 В 3 н/о н/о +29.5 +17.3 48 +34 +34 очень
душно
1013.7 1003.4
17 10.06 В 2 н/о н/о +28.8 +17.3 50 +33 +33 очень
душно
1013.3 1003.0
18 10.06 В 2 30 км 3/0
[Ci sp]
+26.7 +19.6 65 +32 +32 очень
душно
1013.6 1003.2 +30.9 0
19 10.06 штиль 0 н/о н/о +25.4 +20.0 72 +31 +31 очень
душно
1013.8 1003.3
20 10.06 В 2 н/о н/о +23.1 +20.1 83 +30 +30 очень
душно
1013.9 1003.4
21 10.06 штиль 0 20 км 1/0
[Ci sp]
+22.2 +18.8 81 +28 +28 душно 1013.6 1003.0
22 10.06 В 2 н/о н/о +21.4 +17.8 80 +26 +26 душно 1013.4 1002.8
23 10.06 В 2 н/о н/о +20.3 +17.3 83 +24 +24 комфорт 1013.6 1003.0
00 11.06 В 1 н/о н/о +18.8 +18.0 95 +21 +21 комфорт 1013.4 1002.7
01 11.06 В 2 н/о н/о +17.9 +17.9 100 +18 +18 1013.4 1002.7
02 11.06 штиль 0 н/о н/о +17.6 +17.6 100 +18 +18 1013.2 1002.5
03 11.06 штиль 0 н/о н/о +17.3 +17.3 100 +17 +17 1013.3 1002.6
04 11.06 СВ 1 н/о н/о +18.7 +18.5 99 +21 +21 комфорт 1013.6 1002.9
05 11.06 В 2 н/о н/о +20.9 +19.0 89 +26 +26 душно 1013.8 1003.2
06 11.06 В 4 20 км ясно +22.8 +18.6 77 +29 +29 очень
душно
1014.1 1003.5 +16.9 0
07 11.06 В 3 н/о н/о +24.6 +18.5 69 +29 +29 душно 1014.1 1003.6
08 11.06 СВ 3 н/о н/о +25.7 +17.6 61 +30 +30 душно 1014.2 1003.7
09 11.06 В 4
{7}
30 км 1/0
[Ci sp]
+27.0 +18.3 59 +32 +32 очень
душно
1014.0 1003.6
10 11.06 В 4
{7}
н/о н/о +27.9 +19.4 60 +34 +34 очень
душно
1013.8 1003.4
11 11.06 В 3
{7}
н/о н/о +28.6 +18.7 55 +34 +34 очень
душно
1013.4 1003.1
12 11.06 В 4
{7}
30 км 1/1 1350 м
[Cu hum Ci sp]
+29.2 +18.6 53 +34 +34 очень
душно
1012.9 1002.6
13 11.06 Ю 3
{7}
н/о н/о +29.8 +18.6 51 +35 +35 очень
душно
1012.7 1002.4
14 11.06 В 2 н/о н/о +29.1 +18.8 54 +34 +34 очень
душно
1012.6 1002.3
15 11.06 ЮВ 2 30 км 8/4 1500 м
[Cb cap Ac cuf Cs]
+28.7 +18.8 55 +34 +34 очень
душно
1012.5 1002.2
16 11.06 ЮВ 3 н/о н/о +28.7 +18.8 55 +34 +34 очень
душно
1011.9 1001.6
17 11.06 Ю 4
{7}
н/о н/о +27.1 +17.9 57 +32 +32 очень
душно
1012.6 1002.2
18 11.06 ЮВ 3 30 км {гроза} 8/0
[Ac cuf Cs]
+25.8 +18.2 63 +30 +30 душно 1013.4 1003.0 +30.0 0
19 11.06 ЮВ 1 н/о н/о +23.7 +17.2 67 +28 +28 душно 1013.8 1003.3
20 11.06 В 2 н/о н/о +22.0 +19.0 83 +27 +27 душно 1014.2 1003.6
21 11.06 В 2 30 км 8/0
[Cs]
+21.4 +18.2 82 +26 +26 душно 1014.2 1003.6
22 11.06 штиль 0 н/о н/о +20.5 +17.9 85 +24 +24 комфорт 1014.4 1003.8
23 11.06 штиль 0 н/о н/о +19.4 +18.4 94 +22 +22 комфорт 1014.6 1003.9
00 12.06 штиль 0 20 км 5/0
[Ci sp]
+19.6 +19.1 97 +22 +22 комфорт 1014.5 1003.8
01 12.06 штиль 0 н/о н/о +18.6 +18.3 98 +20 +20 1014.4 1003.7
02 12.06 Ю 1 н/о н/о +19.2 +18.4 95 +22 +22 комфорт 1014.1 1003.4
03 12.06 В 1 н/о н/о +17.4 +17.4 100 +18 +18 1014.2 1003.4
04 12.06 штиль 0 н/о н/о +18.9 +18.7 99 +20 +20 1014.1 1003.4
05 12.06 ЮВ 2 н/о н/о +21.7 +19.4 87 +27 +27 душно 1014.0 1003.4
06 12.06 В 3 20 км 3/0
[Ci sp]
+24.2 +19.5 75 +29 +29 душно 1014.2 1003.7 +17.4 0
07 12.06 В 3 н/о н/о +26.4 +19.3 65 +32 +32 очень
душно
1014.5 1004.1
08 12.06 В 3 н/о н/о +27.3 +19.1 61 +33 +33 очень
душно
1014.7 1004.3
09 12.06 ЮВ 3
{7}
30 км 5/0
[Ac cast Ci sp]
+28.3 +18.4 55 +33 +33 очень
душно
1014.8 1004.4
10 12.06 ЮВ 4 н/о н/о +28.9 +17.8 51 +33 +33 очень
душно
1014.4 1004.1
11 12.06 ЮВ 4
{7}
н/о н/о +29.8 +18.3 50 +35 +35 очень
душно
1013.9 1003.6
12 12.06 Ю 4
{7}
30 км 1/1 1500 м
[Cu hum]
+30.1 +17.6 47 +34 +34 очень
душно
1013.5 1003.2
13 12.06 Ю 4
{8}
н/о н/о +30.3 +16.7 44 +34 +34 очень
душно
1013.1 1002.8
14 12.06 Ю 4
{7}
н/о н/о +30.6 +16.6 43 +34 +34 очень
душно
1012.8 1002.5
15 12.06 ЮВ 4 30 км 3/3 1500 м
[Cu hum]
+30.4 +16.8 44 +34 +34 очень
душно
1012.7 1002.4
16 12.06 ЮВ 4 н/о н/о +29.9 +16.0 43 +33 +33 душно 1012.4 1002.1
17 12.06 ЮВ 2 н/о н/о +28.8 +17.3 50 +33 +33 очень
душно
1012.6 1002.3
18 12.06 Ю 2 30 км 1/0
[Ci sp]
+27.4 +18.1 57 +32 +32 очень
душно
1012.8 1002.4 +30.8 0
19 12.06 ЮВ 1 н/о н/о +24.3 +18.3 69 +29 +29 душно 1013.1 1002.6
20 12.06 ЮВ 1 н/о н/о +23.8 +17.8 69 +28 +28 душно 1013.5 1003.0
21 12.06 ЮВ 1 н/о н/о +22.7 +18.9 79 +29 +29 очень
душно
1013.6 1003.0
22 12.06 штиль 0 н/о н/о +20.5 +19.2 92 +24 +24 комфорт 1013.6 1003.0
23 12.06 штиль 0 н/о н/о +20.4 +18.9 91 +24 +24 комфорт 1013.6 1003.0
00 13.06 В 1 н/о н/о +19.1 +18.1 94 +22 +22 комфорт 1013.5 1002.8
01 13.06 штиль 0 н/о н/о +19.6 +18.3 92 +22 +22 комфорт 1013.5 1002.8
02 13.06 штиль 0 н/о н/о +18.5 +18.0 97 +19 +19 1013.4 1002.7
03 13.06 СВ 2 15 км 1/0
[Ci sp]
+17.5 +17.3 99 +18 +18 1013.8 1003.1
04 13.06 СВ 1 н/о н/о +19.0 +18.5 97 +22 +22 комфорт 1014.1 1003.4
05 13.06 ЮВ 1 н/о н/о +22.1 +20.0 88 +28 +28 душно 1014.0 1003.4
06 13.06 ЮВ 1 15 км 1/0
[Ci fib]
+24.4 +19.9 76 +30 +30 очень
душно
1014.4 1003.9 +17.4 0
07 13.06 Ю 2 н/о н/о +26.7 +19.6 65 +32 +32 очень
душно
1014.4 1004.0
08 13.06 ЮВ 2 н/о н/о +28.5 +19.4 58 +34 +34 очень
душно
1014.6 1004.2
09 13.06 ЮВ 3 30 км 1/0
[Ci sp]
+29.4 +18.5 52 +34 +34 очень
душно
1014.4 1004.1
10 13.06 ЮВ 5
{7}
н/о н/о +30.3 +17.7 47 +35 +35 очень
душно
1014.0 1003.7
11 13.06 ЮВ 5
{8}
н/о н/о +31.0 +17.0 43 +35 +35 очень
душно
1013.8 1003.5
12 13.06 ЮВ 5
{9}
30 км ясно +31.5 +17.0 42 +35 +35 очень
душно
1013.5 1003.2
13 13.06 Ю 5
{8}
н/о н/о +31.9 +17.0 41 +35 +35 очень
душно
1013.3 1003.1
14 13.06 Ю 4
{7}
н/о н/о +31.9 +17.4 42 +36 +36 очень
душно
1013.0 1002.8
15 13.06 Ю 4 30 км ясно +31.6 +17.9 44 +36 +36 очень
душно
1012.9 1002.7
16 13.06 Ю 3 н/о н/о +30.9 +17.9 46 +35 +35 очень
душно
1012.9 1002.6
17 13.06 Ю 3 н/о н/о +29.8 +18.9 52 +35 +35 очень
душно
1012.8 1002.5
18 13.06 Ю 2 30 км 1/0
[Ci sp]
+28.0 +19.5 60 +34 +34 очень
душно
1012.9 1002.5 +32.1 0
19 13.06 Ю 2 н/о н/о +26.7 +18.8 62 +32 +32 очень
душно
1012.9 1002.5
20 13.06 ЮВ 2 н/о н/о +25.1 +19.5 71 +30 +30 душно 1013.6 1003.1
21 13.06 ЮВ 1 н/о н/о +24.3 +20.4 79 +30 +30 очень
душно
1014.3 1003.8
22 13.06 штиль 0 н/о н/о +22.7 +20.0 85 +29 +29 очень
душно
1014.7 1004.1
23 13.06 ЮЗ 1 н/о н/о +22.8 +19.8 83 +29 +29 очень
душно
1014.9 1004.3
00 14.06 ЮЗ 1 н/о н/о +21.4 +20.4 94 +27 +27 душно 1014.6 1004.0
01 14.06 штиль 0 н/о н/о +21.0 +19.8 93 +26 +26 душно 1014.5 1003.9
02 14.06 штиль 0 н/о н/о +20.4 +19.7 96 +24 +24 комфорт 1014.8 1004.1
03 14.06 штиль 0 20 км 1/0
[Ac trans]
+20.2 +19.7 97 +24 +24 комфорт 1014.8 1004.1
04 14.06 СВ 1 н/о н/о +20.8 +20.5 98 +27 +27 душно 1015.2 1004.6
05 14.06 ЮЗ 1 н/о н/о +23.8 +21.5 87 +30 +30 очень
душно
1015.6 1005.1
06 14.06 СЗ 3 20 км 3/0
[Ac cast]
+26.4 +20.9 72 +33 +33 очень
душно
1016.1 1005.6 +19.6 0
07 14.06 СЗ 4 н/о н/о +27.6 +19.7 62 +33 +33 очень
душно
1016.4 1006.0
08 14.06 С 2 н/о н/о +29.3 +20.2 58 +36 +36 очень
душно
1016.5 1006.1
09 14.06 В 2 25 км 4/1 1500 м
[Cu hum Ac cast]
+30.4 +20.0 54 +37 +37 очень
душно
1016.6 1006.3
10 14.06 С 1 н/о н/о +31.3 +20.6 53 +38 +38 очень
душно
1016.9 1006.6
11 14.06 Ю 1 н/о н/о +31.9 +20.8 52 +39 +39 очень
душно
1016.5 1006.2
12 14.06 В 7
{10}
25 км 8/5 1200 м
[Cb cap Ac cast Ci sp]
+28.7 +19.1 56 +34 +34 очень
душно
1016.3 1005.9
13 14.06 ЮВ 5
{10}
н/о н/о +29.9 +20.2 56 +36 +36 очень
душно
1015.9 1005.6
14 14.06 ЮВ 4
{7}
н/о н/о +31.7 +20.6 52 +39 +39 очень
душно
1015.8 1005.5
15 14.06 Ю 1 30 км 6/4 1500 м
[Cu med, cong Ac cuf Ci ing]
+31.6 +20.2 51 +38 +38 очень
душно
1015.5 1005.2
16 14.06 ЮВ 3 н/о н/о +31.5 +21.4 55 +39 +39 очень
душно
1015.4 1005.1
17 14.06 Ю 4 н/о н/о +28.9 +21.4 64 +37 +37 очень
душно
1015.8 1005.4
18 14.06 Ю 2 30 км 6/3 1500 м
[Cu med, cong Ci ing]
+27.7 +22.0 71 +36 +36 очень
душно
1015.7 1005.3 +32.7 0
19 14.06 В 1
{7}
н/о н/о +25.7 +21.8 79 +33 +33 очень
душно
1016.4 1005.9
20 14.06 штиль 0 н/о н/о +24.6 +22.1 86 +32 +32 очень
душно
1016.3 1005.8
21 14.06 штиль 0 20 км 1/0
[Ci sp]
+23.6 +22.0 91 +30 +30 очень
душно
1016.6 1006.0
22 14.06 штиль 0 н/о н/о +22.4 +21.4 94 +29 +29 очень
душно
1016.5 1005.9
23 14.06 ЮВ 1 н/о н/о +21.1 +20.4 96 +26 +26 душно 1016.0 1005.4
00 15.06 В 1 н/о н/о +20.1 +19.6 97 +25 +25 комфорт 1016.0 1005.3
01 15.06 СВ 2 н/о н/о +19.6 +19.4 99 +23 +23 комфорт 1015.7 1005.0
02 15.06 ЮВ 1 н/о н/о +19.9 +19.1 95 +24 +24 комфорт 1015.9 1005.2
03 15.06 Ю 2 н/о н/о +19.6 +19.4 99 +23 +23 комфорт 1015.8 1005.1
04 15.06 Ю 1 н/о н/о +20.5 +20.5 100 +26 +26 душно 1016.0 1005.3
05 15.06 ЮВ 1 н/о н/о +23.0 +21.1 89 +31 +31 очень
душно
1015.9 1005.3
06 15.06 штиль 0 10 км ясно +26.5 +18.9 63 +32 +32 очень
душно
1015.6 1005.2 +19.2 0
07 15.06 В 1 н/о н/о +28.6 +17.5 51 +33 +33 очень
душно
1015.4 1005.0
08 15.06 Ю 2 н/о н/о +29.6 +16.4 45 +33 +33 душно 1015.4 1005.1
09 15.06 Ю 2 н/о н/о +30.7 +16.3 42 +34 +34 очень
душно
1015.4 1005.1
10 15.06 Ю 3 н/о н/о +31.4 +19.7 50 +37 +37 очень
душно
1015.1 1004.8
11 15.06 Ю 3 н/о н/о +31.6 +19.9 50 +38 +38 очень
душно
1014.6 1004.3
12 15.06 Ю 1 30 км 1/1 1500 м
[Cu hum]
+32.0 +19.3 47 +38 +38 очень
душно
1013.8 1003.6
13 15.06 Ю 2 н/о н/о +32.4 +18.9 45 +38 +38 очень
душно
1013.2 1003.0
14 15.06 ЮЗ 2 н/о н/о +32.7 +18.5 43 +37 +37 очень
душно
1012.9 1002.7
15 15.06 ЮВ 2 30 км 4/1 1500 м
[Cu hum Ci sp]
+32.1 +19.4 47 +38 +38 очень
душно
1012.6 1002.4
16 15.06 Ю 2 н/о н/о +31.2 +18.9 48 +36 +36 очень
душно
1012.5 1002.2
17 15.06 ЮВ 2 н/о н/о +29.9 +19.6 54 +36 +36 очень
душно
1012.5 1002.2
18 15.06 ЮЗ 2 30 км 4/0
[Ci sp]
+28.7 +19.6 58 +35 +35 очень
душно
1012.0 1001.7 +32.9 0
19 15.06 ЮЗ 1 н/о н/о +27.1 +20.0 65 +33 +33 очень
душно
1012.2 1001.8
20 15.06 Ю 1 н/о н/о +25.0 +21.3 80 +32 +32 очень
душно
1012.7 1002.2
21 15.06 Ю 1 20 км 1/0
[Ci sp]
+24.6 +21.1 81 +31 +31 очень
душно
1012.4 1001.9
22 15.06 штиль 0 н/о н/о +22.9 +21.2 90 +30 +30 очень
душно
1012.1 1001.6
23 15.06 штиль 0 н/о н/о +21.6 +20.8 95 +27 +27 душно 1012.3 1001.7
00 16.06 Ю 1 н/о н/о +21.4 +20.6 95 +27 +27 душно 1012.4 1001.8
01 16.06 Ю 1 н/о н/о +21.2 +21.2 100 +27 +27 душно 1012.3 1001.7
02 16.06 штиль 0 н/о н/о +20.5 +20.5 100 +25 +25 комфорт 1012.3 1001.7
03 16.06 штиль 0 10 км 1/0
[Ac cast]
+20.3 +20.3 100 +24 +24 комфорт 1012.5 1001.9
04 16.06 Ю 2 н/о н/о +21.1 +21.1 100 +26 +26 душно 1012.8 1002.2
05 16.06 Ю 2 н/о н/о +23.5 +21.4 88 +30 +30 очень
душно
1012.7 1002.2
06 16.06 Ю 2 30 км 1/0
[Ci sp]
+25.9 +22.0 79 +33 +33 очень
душно
1012.9 1002.5 +20.1 0
07 16.06 ЮВ 2 н/о н/о +27.8 +21.6 69 +36 +36 очень
душно
1013.0 1002.6
08 16.06 ЮВ 2 н/о н/о +29.1 +21.6 64 +37 +37 очень
душно
1012.9 1002.6
09 16.06 В 2 30 км 1/0
[Ci sp]
+30.8 +21.9 59 +39 +39 очень
душно
1013.0 1002.7
10 16.06 Ю 2 н/о н/о +31.4 +19.7 50 +37 +37 очень
душно
1012.8 1002.6
11 16.06 Ю 2 н/о н/о +31.5 +19.8 50 +38 +38 очень
душно
1012.5 1002.3
12 16.06 В 1 30 км 5/5 1500 м
[Cu hum]
+31.7 +20.0 50 +38 +38 очень
душно
1011.9 1001.7
13 16.06 Ю 2 н/о н/о +32.9 +20.1 47 +39 +39 очень
душно
1011.3 1001.1
14 16.06 ЮВ 2 н/о н/о +32.5 +19.0 45 +38 +38 очень
душно
1010.5 1000.3
15 16.06 СЗ 7
{10}
30 км 8/5 1500 м
[Cu med, cong Ac cuf Ci sp]
+29.4 +17.6 49 +34 +34 очень
душно
1011.3 1001.0
16 16.06 СЗ 6
{19}
н/о н/о +21.3 +17.9 81 +25 +25 комфорт 1012.6 1002.0
17 16.06 З 5
{10}
н/о н/о +24.3 +18.9 72 +29 +29 душно 1013.2 1002.7
18 16.06 СЗ 4
{12}
15 км гроза, ливневой дождь 9/6 1350 м
[Cb cap Ac cuf]
+22.5 +21.1 92 +30 +30 очень
душно
1014.3 1003.7 +33.5 2 0
19 16.06 СЗ 7
{16}
н/о н/о +20.4 +15.6 74 +23 +23 комфорт 1013.0 1002.4
20 16.06 С 7
{14}
н/о н/о +19.9 +16.7 82 +22 +22 комфорт 1012.7 1002.1
21 16.06 ЮЗ 3
{11}
30 км {гроза} 9/4 2000 м
[Sc Ac As Ci sp]
+19.6 +16.1 80 +22 +22 комфорт 1014.5 1003.8
22 16.06 ЮЗ 3 н/о н/о +19.7 +17.1 85 +22 +22 комфорт 1015.5 1004.8
23 16.06 С 1 н/о н/о +18.6 +16.9 90 +21 +21 комфорт 1015.4 1004.7
00 17.06 СЗ 3 н/о н/о +18.2 +16.5 90 +19 +19 1015.1 1004.4 0.1

 

Местоположение метеостанции Сольнок (Венгрия): широта 47.12 долгота 20.23 высота над уровнем моря 94 м.

В архиве по умолчанию представлена погода в Сольноке за последнюю неделю. Архивные данные за месяц целиком и за предыдущие месяцы, начиная с января 2011 года, Вы можете получить, выбрав интересующий диапазон дат из раскрывающегося списка и нажав кнопку "Ввод!".


*Определитесь, кто Вы:
робот инопланетянин человек

Внимание! Время в таблицах - всемирное. Для получения местного времени необходимо прибавить поправку, которая равна 1 ч.

Смотрите также архив погоды в соседних городах и на ближайших метеорологических станциях:

Погода в Кечкемете (Венгрия) (43 км)
Погода в Порозло (Венгрия) (66 км)
Погода на Кекеше (Венгрия) (85 км)
Погода в Будапеште (Венгрия) (86 км)
Погода в Бекешчабе (Венгрия) (87 км)
Погода в Эгере (Венгрия) (87 км)
Погода в Сегеде (Венгрия) (97 км)
Погода в Дебрецене (Венгрия) (111 км)
Погода в Мишкольце (Венгрия) (116 км)
Погода в Кишинеу-Криш (Румыния) (119 км)

Пояснения к столбцам:

Ветер - указаны скорость ветра в м/с - средняя за 10 мин, порывы в срок и между сроками (в фигурных скобках) и направление, откуда дует ветер: С - северный, СВ - северо-восточный, В - восточный, ЮВ - юго-восточный, Ю - южный, ЮЗ - юго-западный, З - западный, СЗ - северо-западный.
Видимость - горизонтальная дальность видимости в метрах или километрах. При видимости от 1 до 10 км при отсутствии осадков обычно наблюдается дымка, при ухудшении видимости до 1 км и менее - туман. В сухую погоду видимость может ухудшаться дымом, пылью или мглою.
Явления - указаны атмосферные явления, наблюдавшиеся в срок или в последний час перед сроком; фигурными скобками обозначены явления, наблюдавшиеся между сроками (за 1-3 часа до срока); квадратными скобками обозначены град или гололедные отложения с указанием их диаметра в мм.
Облачность - указаны через наклонную черту общая и нижняя облачность в баллах и высота нижней границы облаков в метрах; квадратными скобками обозначены формы облаков: Ci - перистые, Cs - перисто-слоистые, Cc - перисто-кучевые, Ac - высококучевые, As - высокослоистые, Sc - слоисто-кучевые, Ns - слоисто-дождевые, Cu - кучевые, Cb - кучево-дождевые. Подробнее классификацию облаков см. в Атласе облаков (PDF).
T - Температура воздуха - температура, измеренная на высоте 2 м над землей.
Td - Температура точки росы - температура, при понижении до которой содержащийся в воздухе водяной пар достигнет насыщения.
f - Относительная влажность воздуха - влажноcть воздуха, измеренная на высоте 2 м над землей.
Te - Эффективная температура - температура, которую ощущает одетый по сезону человек в тени. Характеристика душности погоды. При расчете учитывается влияние влажности воздуха и скорости ветра на теплоощущения человека.
Tes - Эффективная температура на солнце - температура, которую ощущает человек, с поправкой на солнечный нагрев. Характеристика знойности погоды. Зависит от высоты солнца над горизонтом, облачности и скорости ветра. Ночью, в пасмурную погоду, а также при ветре 12 м/с и более поправка равна нулю.
P - Атмосферное давление - приведенное к уровню моря атмосферное давление.
Po - Атмосферное давление - измеренное на уровне метеостанции атмосферное давление.
Tmin - Минимальная температура - минимум температуры воздуха на высоте 2 м над землей.
Tmax - Максимальная температура - максимум температуры воздуха на высоте 2 м над землей.
R - Количество осадков - Количество выпавших осадков за период времени, мм. При наведении курсора мыши на число - период времени, за который выпало указанное количество осадков.
R24 - Количество осадков - Количество выпавших осадков за 24 часа, мм.
S - Снежный покров - Высота снежного покрова, см. При наведении курсора мыши на число - состояние снежного покрова и степень покрытия местности в баллах.